Change the Weather History Date:

Friday, June 14, 2013

  Actual Average (KHVN) Record (KHVN)
Temperature  
Mean Temperature 62 °F -  
Max Temperature 75 °F 73 °F 94 °F (1988)
Min Temperature 51 °F 57 °F 49 °F (1978)
Degree Days  
Heating Degree Days 3    
Growing Degree Days 12 (Base 50)    
Moisture  
Dew Point 51 °F    
Average Humidity 78    
Maximum Humidity 94    
Minimum Humidity 38    
Precipitation  
Precipitation 0.65 in - - ()
Sea Level Pressure  
Sea Level Pressure 29.69 in    
Wind  
Wind Speed 9 mph (North)    
Max Wind Speed 13 mph    
Max Gust Speed 24 mph    
Visibility 8 miles    
Events Rain    
Averages and records for this station are not official NWS values.
T = Trace of Precipitation, MM = Missing Value Source: NWS Daily Summary

Daily Weather History Graph

Daily Weather History Graph

Search for Another Location

Airport or City:

Trip Planner

Search our weather history database for the weather conditions in past years. The results will help you decide how hot, cold, wet, or windy it might be!

Date:

Astronomy

Jun. 14, 2013 Rise Set
Actual Time 5:16 AM EDT 8:26 PM EDT
Civil Twilight 4:42 AM EDT 9:00 PM EDT
Nautical Twilight 3:59 AM EDT 9:44 PM EDT
Astronomical Twilight 3:07 AM EDT 10:36 PM EDT
Moon 10:52 AM EDT (6/14) 11:57 PM EDT (6/14)
Length of Visible Light 16h 17m
Length of Day
15h 09m
Waxing Crescent, 30% of the Moon is Illuminated
Jun 14
Waxing Crescent
Jun 16
First Quarter
Jun 23
Full
Jun 30
Last Quarter
Jul 8
New

Hourly Weather History & Observations

Time (EDT) Temp. Dew Point Humidity Pressure Visibility Wind Dir Wind Speed Gust Speed Precip Events Conditions
12:08 AM 53.6 °F 50.0 °F 88% 29.58 in 3.0 mi NNE 12.7 mph 24.2 mph 0.04 in Rain Heavy Rain
12:42 AM 53.6 °F 51.8 °F 94% 29.58 in 4.0 mi North 8.1 mph 18.4 mph 0.11 in Rain Rain
12:53 AM 53.1 °F 51.1 °F 93% 29.59 in 3.0 mi North 9.2 mph - 0.12 in Rain Rain
1:24 AM 53.6 °F 51.8 °F 94% 29.58 in 3.0 mi North 9.2 mph 17.3 mph 0.06 in Rain Rain
1:40 AM 53.6 °F 51.8 °F 94% 29.59 in 4.0 mi North 8.1 mph 18.4 mph 0.09 in Rain Rain
1:53 AM 53.1 °F 50.0 °F 89% 29.60 in 2.5 mi North 10.4 mph 18.4 mph 0.15 in Rain Heavy Rain
2:04 AM 53.6 °F 50.0 °F 88% 29.60 in 3.0 mi North 10.4 mph 18.4 mph 0.04 in Rain Heavy Rain
2:17 AM 53.6 °F 50.0 °F 88% 29.60 in 4.0 mi North 12.7 mph 18.4 mph 0.06 in Rain Rain
2:53 AM 52.0 °F 48.9 °F 89% 29.60 in 3.0 mi North 9.2 mph 20.7 mph 0.16 in Rain Rain
3:53 AM 52.0 °F 48.9 °F 89% 29.62 in 6.0 mi North 12.7 mph 19.6 mph 0.10 in Rain Rain
4:32 AM 51.8 °F 48.2 °F 88% 29.63 in 6.0 mi North 11.5 mph 20.7 mph 0.03 in Rain Light Rain
4:42 AM 51.8 °F 48.2 °F 88% 29.64 in 7.0 mi North 11.5 mph 16.1 mph 0.03 in Rain Light Rain
4:53 AM 52.0 °F 48.9 °F 89% 29.64 in 8.0 mi North 5.8 mph 19.6 mph 0.04 in Rain Light Rain
5:09 AM 51.8 °F 48.2 °F 88% 29.65 in 9.0 mi North 12.7 mph 21.9 mph 0.00 in Rain Light Rain
5:39 AM 51.8 °F 48.2 °F 88% 29.65 in 4.0 mi North 10.4 mph 18.4 mph 0.04 in Rain Rain
5:53 AM 52.0 °F 48.9 °F 89% 29.64 in 4.0 mi North 11.5 mph 17.3 mph 0.06 in Rain Rain
6:12 AM 51.8 °F 50.0 °F 94% 29.65 in 6.0 mi North 12.7 mph - 0.02 in Rain Light Rain
6:53 AM 53.1 °F 50.0 °F 89% 29.67 in 10.0 mi North 11.5 mph 20.7 mph 0.02 in Rain Light Rain
7:06 AM 53.6 °F 50.0 °F 88% 29.68 in 10.0 mi North 9.2 mph - 0.00 in   Overcast
7:41 AM 55.4 °F 50.0 °F 82% 29.69 in 10.0 mi North 6.9 mph - 0.00 in   Overcast
7:53 AM 55.0 °F 51.1 °F 86% 29.69 in 10.0 mi North 9.2 mph - 0.00 in   Overcast
8:53 AM 55.9 °F 51.1 °F 84% 29.70 in 10.0 mi North 6.9 mph 16.1 mph 0.00 in   Overcast
9:19 AM 57.2 °F 51.8 °F 82% 29.71 in 10.0 mi North 10.4 mph 17.3 mph N/A   Overcast
9:53 AM 57.9 °F 51.1 °F 78% 29.72 in 10.0 mi North 12.7 mph 19.6 mph N/A   Mostly Cloudy
10:01 AM 57.2 °F 50.0 °F 77% 29.73 in 10.0 mi NNE 10.4 mph 23.0 mph N/A   Mostly Cloudy
10:29 AM 59.0 °F 51.8 °F 77% 29.74 in 10.0 mi Variable 5.8 mph - N/A   Overcast
10:53 AM 59.0 °F 50.0 °F 72% 29.76 in 10.0 mi North 9.2 mph - N/A   Overcast
11:04 AM 60.8 °F 50.0 °F 68% 29.76 in 10.0 mi North 6.9 mph - N/A   Mostly Cloudy
11:53 AM 61.0 °F 50.0 °F 67% 29.78 in 10.0 mi North 8.1 mph - N/A   Partly Cloudy
12:53 PM 64.0 °F 51.1 °F 63% 29.77 in 10.0 mi NNW 5.8 mph - N/A   Partly Cloudy
1:53 PM 68.0 °F 52.0 °F 56% 29.77 in 10.0 mi Variable 6.9 mph - N/A   Partly Cloudy
2:53 PM 71.1 °F 50.0 °F 47% 29.76 in 10.0 mi Calm Calm - N/A   Clear
3:53 PM 73.0 °F 48.9 °F 42% 29.75 in 10.0 mi Calm Calm - N/A   Clear
4:53 PM 73.9 °F 46.9 °F 38% 29.75 in 10.0 mi Calm Calm - N/A   Clear
5:53 PM 73.0 °F 50.0 °F 44% 29.76 in 10.0 mi West 5.8 mph - N/A   Clear
6:53 PM 69.1 °F 55.0 °F 61% 29.78 in 10.0 mi SW 3.5 mph - N/A   Mostly Cloudy
7:53 PM 66.9 °F 55.9 °F 68% 29.79 in 10.0 mi West 5.8 mph - N/A   Mostly Cloudy
8:53 PM 63.0 °F 53.1 °F 70% 29.80 in 10.0 mi Calm Calm - N/A   Clear
9:53 PM 57.0 °F 55.0 °F 93% 29.82 in 10.0 mi Calm Calm - N/A   Clear
10:53 PM 62.1 °F 55.0 °F 78% 29.83 in 10.0 mi WNW 6.9 mph - N/A   Clear
11:53 PM 62.1 °F 55.0 °F 78% 29.84 in 10.0 mi WNW 5.8 mph - N/A   Clear